Time,TemperatureF,DewpointF,PressureIn,WindDirection,WindDirectionDegrees,WindSpeedMPH,WindSpeedGustMPH,Humidity,HourlyPrecipIn,Conditions,Clouds,dailyrainin,SoftwareType,DateUTC
2013-11-17 00:00:00,62.4,60.9,30.17,NNW,338,5.0,11.0,95,0.00,,,0.00,WUHU216DAVISVP2,2013-11-17 05:00:00,
2013-11-17 00:01:00,62.4,60.9,30.17,NW,318,4.0,11.0,95,0.00,,,0.00,WUHU216DAVISVP2,2013-11-17 05:01:00,
2013-11-17 00:06:00,62.4,60.9,30.17,NNE,18,6.0,11.0,95,0.00,,,0.00,WUHU216DAVISVP2,2013-11-17 05:06:00,
2013-11-17 00:11:00,62.5,61.0,30.17,WNW,303,4.0,11.0,95,0.00,,,0.00,WUHU216DAVISVP2,2013-11-17 05:11:00,
2013-11-17 00:16:00,62.5,61.0,30.17,North,1,9.0,12.0,95,0.00,,,0.00,WUHU216DAVISVP2,2013-11-17 05:16:00,
2013-11-17 00:21:00,62.4,60.9,30.17,WNW,298,3.0,12.0,95,0.00,,,0.00,WUHU216DAVISVP2,2013-11-17 05:21:00,
2013-11-17 00:26:00,62.5,61.0,30.17,North,2,4.0,12.0,95,0.00,,,0.00,WUHU216DAVISVP2,2013-11-17 05:26:00,
2013-11-17 00:30:00,62.5,61.0,30.17,NW,315,4.0,12.0,95,0.00,,,0.00,WUHU216DAVISVP2,2013-11-17 05:30:00,
2013-11-17 00:31:00,62.5,61.0,30.16,NNE,16,2.0,12.0,95,0.00,,,0.00,WUHU216DAVISVP2,2013-11-17 05:31:00,
2013-11-17 00:36:00,62.5,61.0,30.16,NW,318,1.0,9.0,95,0.00,,,0.00,WUHU216DAVISVP2,2013-11-17 05:36:00,
2013-11-17 00:41:00,62.6,61.1,30.16,NE,48,5.0,9.0,95,0.00,,,0.00,WUHU216DAVISVP2,2013-11-17 05:41:00,
2013-11-17 00:46:00,62.7,61.2,30.16,North,11,5.0,11.0,95,0.00,,,0.00,WUHU216DAVISVP2,2013-11-17 05:46:00,
2013-11-17 00:51:00,62.7,61.2,30.15,NNE,20,8.0,13.0,95,0.00,,,0.00,WUHU216DAVISVP2,2013-11-17 05:51:00,
2013-11-17 00:56:00,62.5,60.7,30.15,NNE,25,8.0,13.0,94,0.00,,,0.00,WUHU216DAVISVP2,2013-11-17 05:56:00,
2013-11-17 01:00:00,62.4,60.7,30.15,NNE,23,6.0,13.0,94,0.00,,,0.00,WUHU216DAVISVP2,2013-11-17 06:00:00,
2013-11-17 01:01:00,62.3,60.5,30.15,NNE,15,7.0,13.0,94,0.00,,,0.00,WUHU216DAVISVP2,2013-11-17 06:01:00,
2013-11-17 01:06:00,62.2,60.7,30.15,NE,36,6.0,13.0,95,0.00,,,0.00,WUHU216DAVISVP2,2013-11-17 06:06:00,
2013-11-17 01:11:00,62.0,60.5,30.15,NNE,21,8.0,11.0,95,0.00,,,0.00,WUHU216DAVISVP2,2013-11-17 06:11:00,
2013-11-17 01:16:00,61.9,60.4,30.15,NE,39,9.0,11.0,95,0.00,,,0.00,WUHU216DAVISVP2,2013-11-17 06:16:00,
2013-11-17 01:21:00,61.8,60.3,30.15,NNE,16,7.0,11.0,95,0.00,,,0.00,WUHU216DAVISVP2,2013-11-17 06:21:00,
2013-11-17 01:26:00,61.7,60.2,30.15,NNE,27,7.0,11.0,95,0.00,,,0.00,WUHU216DAVISVP2,2013-11-17 06:26:00,
2013-11-17 01:30:00,61.6,60.2,30.14,NNE,23,7.0,11.0,95,0.00,,,0.00,WUHU216DAVISVP2,2013-11-17 06:30:00,
2013-11-17 01:31:00,61.6,60.1,30.14,NNE,22,8.0,11.0,95,0.00,,,0.00,WUHU216DAVISVP2,2013-11-17 06:31:00,
2013-11-17 01:36:00,61.4,59.9,30.14,NE,44,7.0,11.0,95,0.00,,,0.00,WUHU216DAVISVP2,2013-11-17 06:36:00,
2013-11-17 01:41:00,61.4,60.2,30.14,NNE,18,5.0,10.0,96,0.00,,,0.00,WUHU216DAVISVP2,2013-11-17 06:41:00,
2013-11-17 01:46:00,61.4,60.2,30.14,NNE,23,5.0,10.0,96,0.00,,,0.00,WUHU216DAVISVP2,2013-11-17 06:46:00,
2013-11-17 01:51:00,61.4,60.2,30.14,NE,37,4.0,10.0,96,0.00,,,0.00,WUHU216DAVISVP2,2013-11-17 06:51:00,
2013-11-17 01:56:00,61.3,60.1,30.14,NNE,32,8.0,11.0,96,0.00,,,0.00,WUHU216DAVISVP2,2013-11-17 06:56:00,
2013-11-17 02:00:00,61.3,60.2,30.14,NNE,23,6.0,11.0,96,0.00,,,0.00,WUHU216DAVISVP2,2013-11-17 07:00:00,
2013-11-17 02:01:00,61.3,60.1,30.14,North,357,5.0,11.0,96,0.00,,,0.00,WUHU216DAVISVP2,2013-11-17 07:01:00,
2013-11-17 02:06:00,61.2,60.0,30.14,NNE,28,8.0,11.0,96,0.00,,,0.00,WUHU216DAVISVP2,2013-11-17 07:06:00,
2013-11-17 02:11:00,61.1,59.9,30.13,NNE,30,7.0,11.0,96,0.00,,,0.00,WUHU216DAVISVP2,2013-11-17 07:11:00,
2013-11-17 02:16:00,61.0,59.8,30.13,NNE,31,6.0,11.0,96,0.00,,,0.00,WUHU216DAVISVP2,2013-11-17 07:16:00,
2013-11-17 02:22:00,61.0,59.8,30.13,NE,48,3.0,10.0,96,0.00,,,0.00,WUHU216DAVISVP2,2013-11-17 07:22:00,
2013-11-17 02:27:00,61.0,59.8,30.13,NE,37,4.0,10.0,96,0.00,,,0.00,WUHU216DAVISVP2,2013-11-17 07:27:00,
2013-11-17 02:30:00,61.0,59.9,30.13,NNE,23,6.0,10.0,96,0.00,,,0.00,WUHU216DAVISVP2,2013-11-17 07:30:00,
2013-11-17 02:31:00,61.0,59.9,30.13,NNE,33,5.0,8.0,96,0.00,,,0.00,WUHU216DAVISVP2,2013-11-17 07:31:00,
2013-11-17 02:37:00,61.0,59.8,30.13,NNE,32,4.0,8.0,96,0.00,,,0.00,WUHU216DAVISVP2,2013-11-17 07:37:00,
2013-11-17 02:42:00,61.0,59.8,30.13,WNW,302,4.0,8.0,96,0.00,,,0.00,WUHU216DAVISVP2,2013-11-17 07:42:00,
2013-11-17 02:47:00,60.9,59.7,30.12,North,5,8.0,8.0,96,0.00,,,0.00,WUHU216DAVISVP2,2013-11-17 07:47:00,
2013-11-17 02:52:00,60.9,59.7,30.12,NE,36,6.0,8.0,96,0.00,,,0.00,WUHU216DAVISVP2,2013-11-17 07:52:00,
2013-11-17 02:57:00,60.9,59.8,30.12,NNE,22,3.0,8.0,96,0.00,,,0.00,WUHU216DAVISVP2,2013-11-17 07:57:00,
2013-11-17 03:00:00,60.9,60.0,30.12,NNE,23,5.0,9.0,97,0.00,,,0.00,WUHU216DAVISVP2,2013-11-17 08:00:00,
2013-11-17 03:02:00,60.9,60.0,30.11,NNE,18,5.0,9.0,97,0.00,,,0.00,WUHU216DAVISVP2,2013-11-17 08:02:00,
2013-11-17 03:07:00,60.8,59.9,30.11,North,6,4.0,9.0,97,0.00,,,0.00,WUHU216DAVISVP2,2013-11-17 08:07:00,
2013-11-17 03:12:00,60.8,59.9,30.11,NNW,334,3.0,9.0,97,0.00,,,0.00,WUHU216DAVISVP2,2013-11-17 08:12:00,
2013-11-17 03:17:00,60.8,59.9,30.11,NW,313,2.0,9.0,97,0.00,,,0.00,WUHU216DAVISVP2,2013-11-17 08:17:00,
2013-11-17 03:22:00,60.7,59.8,30.11,NNE,28,5.0,9.0,97,0.00,,,0.00,WUHU216DAVISVP2,2013-11-17 08:22:00,
2013-11-17 03:27:00,60.7,59.8,30.11,NNE,19,6.0,9.0,97,0.00,,,0.00,WUHU216DAVISVP2,2013-11-17 08:27:00,
2013-11-17 03:30:00,60.7,59.8,30.11,NNE,23,5.0,9.0,97,0.00,,,0.00,WUHU216DAVISVP2,2013-11-17 08:30:00,
2013-11-17 03:32:00,60.7,59.8,30.11,NE,36,4.0,9.0,97,0.00,,,0.00,WUHU216DAVISVP2,2013-11-17 08:32:00,
2013-11-17 03:37:00,60.6,59.7,30.11,NNE,33,7.0,9.0,97,0.00,,,0.00,WUHU216DAVISVP2,2013-11-17 08:37:00,
2013-11-17 03:42:00,60.6,59.7,30.10,NNE,18,4.0,9.0,97,0.00,,,0.00,WUHU216DAVISVP2,2013-11-17 08:42:00,
2013-11-17 03:47:00,60.5,59.6,30.10,North,9,4.0,8.0,97,0.00,,,0.00,WUHU216DAVISVP2,2013-11-17 08:47:00,
2013-11-17 03:52:00,60.5,59.6,30.10,NNE,24,4.0,8.0,97,0.00,,,0.00,WUHU216DAVISVP2,2013-11-17 08:52:00,
2013-11-17 03:57:00,60.4,59.5,30.10,NNE,19,3.0,8.0,97,0.00,,,0.00,WUHU216DAVISVP2,2013-11-17 08:57:00,
2013-11-17 04:00:00,60.4,59.5,30.10,NNE,23,5.0,8.0,97,0.00,,,0.00,WUHU216DAVISVP2,2013-11-17 09:00:00,
2013-11-17 04:02:00,60.4,59.5,30.10,NNE,27,3.0,7.0,97,0.00,,,0.00,WUHU216DAVISVP2,2013-11-17 09:02:00,
2013-11-17 04:07:00,60.4,59.5,30.10,NNE,15,6.0,6.0,97,0.00,,,0.00,WUHU216DAVISVP2,2013-11-17 09:07:00,
2013-11-17 04:12:00,60.3,59.4,30.10,NNE,28,3.0,6.0,97,0.00,,,0.00,WUHU216DAVISVP2,2013-11-17 09:12:00,
2013-11-17 04:17:00,60.3,59.4,30.10,NE,37,4.0,6.0,97,0.00,,,0.00,WUHU216DAVISVP2,2013-11-17 09:17:00,
2013-11-17 04:22:00,60.3,59.4,30.10,NE,51,4.0,6.0,97,0.00,,,0.00,WUHU216DAVISVP2,2013-11-17 09:22:00,
2013-11-17 04:27:00,60.3,59.4,30.10,NE,44,4.0,5.0,97,0.00,,,0.00,WUHU216DAVISVP2,2013-11-17 09:27:00,
2013-11-17 04:30:00,60.3,59.4,30.10,NE,45,4.0,6.0,97,0.00,,,0.00,WUHU216DAVISVP2,2013-11-17 09:30:00,
2013-11-17 04:32:00,60.4,59.5,30.10,NE,50,4.0,5.0,97,0.00,,,0.00,WUHU216DAVISVP2,2013-11-17 09:32:00,
2013-11-17 04:37:00,60.5,59.6,30.10,NE,44,5.0,5.0,97,0.00,,,0.00,WUHU216DAVISVP2,2013-11-17 09:37:00,
2013-11-17 04:42:00,60.6,60.0,30.09,NE,53,4.0,6.0,98,0.00,,,0.00,WUHU216DAVISVP2,2013-11-17 09:42:00,
2013-11-17 04:47:00,60.8,60.2,30.09,NE,51,6.0,6.0,98,0.00,,,0.00,WUHU216DAVISVP2,2013-11-17 09:47:00,
2013-11-17 04:52:00,61.0,60.4,30.09,NE,48,6.0,7.0,98,0.00,,,0.00,WUHU216DAVISVP2,2013-11-17 09:52:00,
2013-11-17 04:57:00,61.1,60.5,30.09,NE,56,6.0,7.0,98,0.00,,,0.00,WUHU216DAVISVP2,2013-11-17 09:57:00,
2013-11-17 05:00:00,61.1,60.5,30.09,NE,45,5.0,7.0,98,0.00,,,0.00,WUHU216DAVISVP2,2013-11-17 10:00:00,
2013-11-17 05:02:00,61.1,60.5,30.09,NE,49,6.0,7.0,98,0.00,,,0.00,WUHU216DAVISVP2,2013-11-17 10:02:00,
2013-11-17 05:07:00,61.2,60.6,30.09,NE,53,5.0,7.0,98,0.00,,,0.00,WUHU216DAVISVP2,2013-11-17 10:07:00,
2013-11-17 05:12:00,61.1,60.5,30.09,NE,47,5.0,6.0,98,0.00,,,0.00,WUHU216DAVISVP2,2013-11-17 10:12:00,
2013-11-17 05:17:00,61.1,60.5,30.09,NE,40,4.0,6.0,98,0.00,,,0.00,WUHU216DAVISVP2,2013-11-17 10:17:00,
2013-11-17 05:22:00,61.1,60.5,30.09,NE,51,6.0,7.0,98,0.00,,,0.00,WUHU216DAVISVP2,2013-11-17 10:22:00,
2013-11-17 05:27:00,61.1,60.5,30.09,NNE,31,5.0,7.0,98,0.00,,,0.00,WUHU216DAVISVP2,2013-11-17 10:27:00,
2013-11-17 05:30:00,61.1,60.5,30.09,NE,45,5.0,7.0,98,0.00,,,0.00,WUHU216DAVISVP2,2013-11-17 10:30:00,
2013-11-17 05:32:00,61.1,60.5,30.09,NE,40,5.0,7.0,98,0.00,,,0.00,WUHU216DAVISVP2,2013-11-17 10:32:00,
2013-11-17 05:37:00,61.1,60.5,30.10,NNE,15,5.0,7.0,98,0.00,,,0.00,WUHU216DAVISVP2,2013-11-17 10:37:00,
2013-11-17 05:42:00,61.1,60.5,30.10,NNE,16,5.0,7.0,98,0.00,,,0.00,WUHU216DAVISVP2,2013-11-17 10:42:00,
2013-11-17 05:47:00,61.1,60.5,30.10,NNE,20,5.0,8.0,98,0.00,,,0.00,WUHU216DAVISVP2,2013-11-17 10:47:00,
2013-11-17 05:52:00,61.1,60.5,30.10,NNE,17,6.0,8.0,98,0.00,,,0.00,WUHU216DAVISVP2,2013-11-17 10:52:00,
2013-11-17 05:57:00,61.1,60.5,30.10,NNE,31,4.0,8.0,98,0.00,,,0.00,WUHU216DAVISVP2,2013-11-17 10:57:00,
2013-11-17 06:00:00,61.1,60.5,30.10,NNE,23,5.0,8.0,98,0.00,,,0.00,WUHU216DAVISVP2,2013-11-17 11:00:00,
2013-11-17 06:02:00,61.0,60.4,30.10,NE,41,6.0,8.0,98,0.00,,,0.00,WUHU216DAVISVP2,2013-11-17 11:02:00,
2013-11-17 06:07:00,61.1,60.5,30.10,NNE,27,4.0,8.0,98,0.00,,,0.00,WUHU216DAVISVP2,2013-11-17 11:07:00,
2013-11-17 06:12:00,61.0,60.4,30.10,North,2,7.0,8.0,98,0.00,,,0.00,WUHU216DAVISVP2,2013-11-17 11:12:00,
2013-11-17 06:17:00,61.0,60.4,30.11,NE,36,3.0,8.0,98,0.00,,,0.00,WUHU216DAVISVP2,2013-11-17 11:17:00,
2013-11-17 06:22:00,60.8,60.2,30.11,NNE,27,6.0,8.0,98,0.00,,,0.00,WUHU216DAVISVP2,2013-11-17 11:22:00,
2013-11-17 06:27:00,60.7,60.1,30.11,NNE,20,4.0,8.0,98,0.00,,,0.00,WUHU216DAVISVP2,2013-11-17 11:27:00,
2013-11-17 06:30:00,60.6,60.0,30.11,NNE,23,5.0,8.0,98,0.00,,,0.00,WUHU216DAVISVP2,2013-11-17 11:30:00,
2013-11-17 06:32:00,60.5,59.9,30.11,NNE,29,4.0,8.0,98,0.00,,,0.00,WUHU216DAVISVP2,2013-11-17 11:32:00,
2013-11-17 06:37:00,60.5,59.9,30.11,NNE,24,5.0,8.0,98,0.00,,,0.00,WUHU216DAVISVP2,2013-11-17 11:37:00,
2013-11-17 06:42:00,60.5,59.9,30.11,NE,43,5.0,8.0,98,0.00,,,0.00,WUHU216DAVISVP2,2013-11-17 11:42:00,
2013-11-17 06:47:00,60.5,59.9,30.11,NNE,20,3.0,8.0,98,0.00,,,0.00,WUHU216DAVISVP2,2013-11-17 11:47:00,
2013-11-17 06:52:00,60.5,59.9,30.11,NNE,25,5.0,8.0,98,0.00,,,0.00,WUHU216DAVISVP2,2013-11-17 11:52:00,
2013-11-17 06:57:00,60.5,59.9,30.11,NNW,333,2.0,8.0,98,0.00,,,0.00,WUHU216DAVISVP2,2013-11-17 11:57:00,
2013-11-17 07:00:00,60.5,59.9,30.11,NNE,23,4.0,8.0,98,0.00,,,0.00,WUHU216DAVISVP2,2013-11-17 12:00:00,
2013-11-17 07:02:00,60.6,60.0,30.11,North,6,5.0,8.0,98,0.00,,,0.00,WUHU216DAVISVP2,2013-11-17 12:02:00,
2013-11-17 07:07:00,60.4,59.8,30.11,NNW,348,2.0,8.0,98,0.00,,,0.00,WUHU216DAVISVP2,2013-11-17 12:07:00,
2013-11-17 07:12:00,60.1,59.5,30.11,NNE,13,3.0,7.0,98,0.00,,,0.00,WUHU216DAVISVP2,2013-11-17 12:12:00,
2013-11-17 07:17:00,60.0,59.4,30.11,North,356,5.0,7.0,98,0.00,,,0.00,WUHU216DAVISVP2,2013-11-17 12:17:00,
2013-11-17 07:22:00,59.9,59.3,30.11,NNE,30,8.0,8.0,98,0.00,,,0.00,WUHU216DAVISVP2,2013-11-17 12:22:00,
2013-11-17 07:27:00,59.7,59.1,30.11,NNE,32,4.0,9.0,98,0.00,,,0.00,WUHU216DAVISVP2,2013-11-17 12:27:00,
2013-11-17 07:30:00,59.7,59.1,30.11,NNE,23,5.0,11.0,98,0.00,,,0.00,WUHU216DAVISVP2,2013-11-17 12:30:00,
2013-11-17 07:32:00,59.6,59.0,30.11,NNE,28,6.0,11.0,98,0.00,,,0.00,WUHU216DAVISVP2,2013-11-17 12:32:00,
2013-11-17 07:37:00,59.6,59.0,30.11,NE,34,6.0,12.0,98,0.00,,,0.00,WUHU216DAVISVP2,2013-11-17 12:37:00,
2013-11-17 07:42:00,59.4,58.8,30.11,NE,34,9.0,12.0,98,0.00,,,0.00,WUHU216DAVISVP2,2013-11-17 12:42:00,
2013-11-17 07:47:00,59.3,58.7,30.12,NNE,23,6.0,12.0,98,0.00,,,0.00,WUHU216DAVISVP2,2013-11-17 12:47:00,
2013-11-17 07:52:00,59.1,58.5,30.12,NNE,14,6.0,12.0,98,0.00,,,0.00,WUHU216DAVISVP2,2013-11-17 12:52:00,
2013-11-17 07:57:00,58.9,58.3,30.12,NE,37,10.0,14.0,98,0.00,,,0.00,WUHU216DAVISVP2,2013-11-17 12:57:00,
2013-11-17 08:00:00,58.8,58.2,30.12,NNE,23,7.0,14.0,98,0.00,,,0.00,WUHU216DAVISVP2,2013-11-17 13:00:00,
2013-11-17 08:02:00,58.8,58.2,30.12,NNE,27,6.0,14.0,98,0.00,,,0.00,WUHU216DAVISVP2,2013-11-17 13:02:00,
2013-11-17 08:07:00,58.7,58.1,30.12,NE,42,7.0,14.0,98,0.00,,,0.00,WUHU216DAVISVP2,2013-11-17 13:07:00,
2013-11-17 08:12:00,58.6,58.0,30.13,NNE,32,8.0,14.0,98,0.00,,,0.00,WUHU216DAVISVP2,2013-11-17 13:12:00,
2013-11-17 08:17:00,58.6,58.0,30.13,NNE,15,6.0,12.0,98,0.00,,,0.00,WUHU216DAVISVP2,2013-11-17 13:17:00,
2013-11-17 08:22:00,58.6,58.0,30.13,NNE,30,6.0,12.0,98,0.00,,,0.00,WUHU216DAVISVP2,2013-11-17 13:22:00,
2013-11-17 08:27:00,58.6,58.3,30.13,NNE,27,7.0,11.0,99,0.00,,,0.00,WUHU216DAVISVP2,2013-11-17 13:27:00,
2013-11-17 08:30:00,58.6,58.3,30.13,NNE,23,7.0,12.0,99,0.00,,,0.00,WUHU216DAVISVP2,2013-11-17 13:30:00,
2013-11-17 08:32:00,58.5,57.9,30.13,NE,34,10.0,12.0,98,0.00,,,0.00,WUHU216DAVISVP2,2013-11-17 13:32:00,
2013-11-17 08:37:00,58.5,58.2,30.13,NE,56,6.0,12.0,99,0.00,,,0.00,WUHU216DAVISVP2,2013-11-17 13:37:00,
2013-11-17 08:42:00,58.5,58.2,30.13,NNE,31,7.0,12.0,99,0.00,,,0.00,WUHU216DAVISVP2,2013-11-17 13:42:00,
2013-11-17 08:47:00,58.5,58.2,30.13,North,8,12.0,12.0,99,0.00,,,0.00,WUHU216DAVISVP2,2013-11-17 13:47:00,
2013-11-17 08:52:00,58.6,58.3,30.13,North,353,6.0,12.0,99,0.00,,,0.00,WUHU216DAVISVP2,2013-11-17 13:52:00,
2013-11-17 08:57:00,58.8,58.5,30.13,NNE,26,4.0,12.0,99,0.00,,,0.00,WUHU216DAVISVP2,2013-11-17 13:57:00,
2013-11-17 09:00:00,59.0,58.7,30.13,NNE,23,6.0,12.0,99,0.00,,,0.00,WUHU216DAVISVP2,2013-11-17 14:00:00,
2013-11-17 09:02:00,59.1,58.8,30.13,NE,37,4.0,12.0,99,0.00,,,0.00,WUHU216DAVISVP2,2013-11-17 14:02:00,
2013-11-17 09:07:00,59.2,58.9,30.13,NNE,23,6.0,9.0,99,0.00,,,0.00,WUHU216DAVISVP2,2013-11-17 14:07:00,
2013-11-17 09:12:00,59.4,59.1,30.14,NNE,27,3.0,8.0,99,0.00,,,0.00,WUHU216DAVISVP2,2013-11-17 14:12:00,
2013-11-17 09:17:00,59.6,59.3,30.14,NNE,32,5.0,8.0,99,0.00,,,0.00,WUHU216DAVISVP2,2013-11-17 14:17:00,
2013-11-17 09:22:00,60.0,59.7,30.13,NNE,24,4.0,8.0,99,0.00,,,0.00,WUHU216DAVISVP2,2013-11-17 14:22:00,
2013-11-17 09:27:00,60.0,59.7,30.13,NE,48,4.0,8.0,99,0.00,,,0.00,WUHU216DAVISVP2,2013-11-17 14:27:00,
2013-11-17 09:30:00,60.1,59.8,30.13,NNE,23,5.0,8.0,99,0.00,,,0.00,WUHU216DAVISVP2,2013-11-17 14:30:00,
2013-11-17 09:32:00,60.0,59.4,30.13,NNE,33,9.0,9.0,98,0.00,,,0.00,WUHU216DAVISVP2,2013-11-17 14:32:00,
2013-11-17 09:37:00,60.4,59.8,30.13,NNE,30,6.0,9.0,98,0.00,,,0.00,WUHU216DAVISVP2,2013-11-17 14:37:00,
2013-11-17 09:42:00,61.1,60.8,30.14,NNE,28,4.0,9.0,99,0.00,,,0.00,WUHU216DAVISVP2,2013-11-17 14:42:00,
2013-11-17 09:47:00,61.1,60.5,30.14,NNE,13,6.0,11.0,98,0.00,,,0.00,WUHU216DAVISVP2,2013-11-17 14:47:00,
2013-11-17 09:52:00,61.2,60.6,30.14,North,9,5.0,12.0,98,0.00,,,0.00,WUHU216DAVISVP2,2013-11-17 14:52:00,
2013-11-17 09:57:00,61.8,61.2,30.14,NNE,18,9.0,12.0,98,0.00,,,0.00,WUHU216DAVISVP2,2013-11-17 14:57:00,
2013-11-17 10:00:00,61.9,61.3,30.14,NE,45,7.0,12.0,98,0.00,,,0.00,WUHU216DAVISVP2,2013-11-17 15:00:00,
2013-11-17 10:02:00,61.8,60.9,30.14,NNE,30,9.0,13.0,97,0.00,,,0.00,WUHU216DAVISVP2,2013-11-17 15:02:00,
2013-11-17 10:07:00,61.9,61.0,30.14,NE,49,12.0,15.0,97,0.00,,,0.00,WUHU216DAVISVP2,2013-11-17 15:07:00,
2013-11-17 10:12:00,62.0,60.8,30.14,ENE,59,7.0,15.0,96,0.00,,,0.00,WUHU216DAVISVP2,2013-11-17 15:12:00,
2013-11-17 10:17:00,61.9,60.4,30.13,NE,37,8.0,15.0,95,0.00,,,0.00,WUHU216DAVISVP2,2013-11-17 15:17:00,
2013-11-17 10:22:00,62.0,60.8,30.13,NE,43,9.0,15.0,96,0.00,,,0.00,WUHU216DAVISVP2,2013-11-17 15:22:00,
2013-11-17 10:27:00,61.9,60.7,30.13,NE,34,9.0,13.0,96,0.00,,,0.00,WUHU216DAVISVP2,2013-11-17 15:27:00,
2013-11-17 10:30:00,61.9,60.7,30.13,NE,45,9.0,15.0,96,0.00,,,0.00,WUHU216DAVISVP2,2013-11-17 15:30:00,
2013-11-17 10:32:00,61.9,60.7,30.13,ENE,58,8.0,12.0,96,0.00,,,0.00,WUHU216DAVISVP2,2013-11-17 15:32:00,
2013-11-17 10:37:00,61.9,60.7,30.13,NE,37,7.0,11.0,96,0.00,,,0.00,WUHU216DAVISVP2,2013-11-17 15:37:00,
2013-11-17 10:42:00,61.9,60.7,30.13,NE,48,5.0,11.0,96,0.00,,,0.00,WUHU216DAVISVP2,2013-11-17 15:42:00,
2013-11-17 10:47:00,62.2,61.0,30.13,NE,56,6.0,9.0,96,0.00,,,0.00,WUHU216DAVISVP2,2013-11-17 15:47:00,
2013-11-17 10:52:00,62.2,61.0,30.13,NE,41,9.0,9.0,96,0.00,,,0.00,WUHU216DAVISVP2,2013-11-17 15:52:00,
2013-11-17 10:57:00,62.6,61.4,30.12,North,4,4.0,10.0,96,0.00,,,0.00,WUHU216DAVISVP2,2013-11-17 15:57:00,
2013-11-17 11:00:00,63.3,62.4,30.12,NE,45,7.0,10.0,97,0.00,,,0.00,WUHU216DAVISVP2,2013-11-17 16:00:00,
2013-11-17 11:02:00,63.5,62.3,30.12,NNE,15,6.0,10.0,96,0.00,,,0.00,WUHU216DAVISVP2,2013-11-17 16:02:00,
2013-11-17 11:07:00,64.1,62.6,30.12,North,5,8.0,11.0,95,0.00,,,0.00,WUHU216DAVISVP2,2013-11-17 16:07:00,
2013-11-17 11:12:00,64.1,62.0,30.11,NNE,32,9.0,11.0,93,0.00,,,0.00,WUHU216DAVISVP2,2013-11-17 16:12:00,
2013-11-17 11:17:00,63.5,61.7,30.11,NE,40,8.0,11.0,94,0.00,,,0.00,WUHU216DAVISVP2,2013-11-17 16:17:00,
2013-11-17 11:22:00,63.2,61.4,30.11,NE,40,7.0,11.0,94,0.00,,,0.00,WUHU216DAVISVP2,2013-11-17 16:22:00,
2013-11-17 11:27:00,63.7,62.2,30.11,NE,40,4.0,10.0,95,0.00,,,0.00,WUHU216DAVISVP2,2013-11-17 16:27:00,
2013-11-17 11:30:00,63.8,62.0,30.11,NE,45,7.0,11.0,94,0.00,,,0.00,WUHU216DAVISVP2,2013-11-17 16:30:00,
2013-11-17 11:32:00,63.7,61.9,30.11,NE,47,8.0,11.0,94,0.00,,,0.00,WUHU216DAVISVP2,2013-11-17 16:32:00,
2013-11-17 11:37:00,63.6,61.8,30.11,NE,54,7.0,11.0,94,0.00,,,0.00,WUHU216DAVISVP2,2013-11-17 16:37:00,
2013-11-17 11:42:00,63.7,61.9,30.10,NE,56,5.0,11.0,94,0.00,,,0.00,WUHU216DAVISVP2,2013-11-17 16:42:00,
2013-11-17 11:47:00,63.7,61.9,30.10,NE,38,6.0,11.0,94,0.00,,,0.00,WUHU216DAVISVP2,2013-11-17 16:47:00,
2013-11-17 11:52:00,63.9,62.1,30.10,NE,41,7.0,10.0,94,0.00,,,0.00,WUHU216DAVISVP2,2013-11-17 16:52:00,
2013-11-17 11:57:00,64.2,62.4,30.10,NE,37,6.0,8.0,94,0.00,,,0.00,WUHU216DAVISVP2,2013-11-17 16:57:00,
2013-11-17 12:00:00,64.1,62.3,30.10,NE,45,6.0,10.0,94,0.00,,,0.00,WUHU216DAVISVP2,2013-11-17 17:00:00,
2013-11-17 12:02:00,64.2,62.4,30.10,ENE,60,4.0,8.0,94,0.00,,,0.00,WUHU216DAVISVP2,2013-11-17 17:02:00,
2013-11-17 12:07:00,64.5,62.7,30.10,NE,44,5.0,8.0,94,0.00,,,0.00,WUHU216DAVISVP2,2013-11-17 17:07:00,
2013-11-17 12:12:00,64.6,62.8,30.09,NE,45,6.0,8.0,94,0.00,,,0.00,WUHU216DAVISVP2,2013-11-17 17:12:00,
2013-11-17 12:17:00,64.9,62.8,30.09,NE,46,5.0,8.0,93,0.00,,,0.00,WUHU216DAVISVP2,2013-11-17 17:17:00,
2013-11-17 12:22:00,65.1,63.0,30.09,East,88,3.0,8.0,93,0.00,,,0.00,WUHU216DAVISVP2,2013-11-17 17:22:00,
2013-11-17 12:27:00,65.1,63.0,30.08,ENE,68,3.0,8.0,93,0.00,,,0.00,WUHU216DAVISVP2,2013-11-17 17:27:00,
2013-11-17 12:30:00,65.0,62.9,30.08,NE,45,5.0,8.0,93,0.00,,,0.00,WUHU216DAVISVP2,2013-11-17 17:30:00,
2013-11-17 12:32:00,65.1,63.0,30.08,NE,39,2.0,8.0,93,0.00,,,0.00,WUHU216DAVISVP2,2013-11-17 17:32:00,
2013-11-17 12:37:00,65.2,63.1,30.08,ENE,63,4.0,6.0,93,0.00,,,0.00,WUHU216DAVISVP2,2013-11-17 17:37:00,
2013-11-17 12:42:00,65.1,62.7,30.08,NE,51,4.0,7.0,92,0.00,,,0.00,WUHU216DAVISVP2,2013-11-17 17:42:00,
2013-11-17 12:47:00,65.1,62.7,30.07,NE,41,5.0,8.0,92,0.00,,,0.00,WUHU216DAVISVP2,2013-11-17 17:47:00,
2013-11-17 12:52:00,65.0,62.9,30.07,NE,51,5.0,9.0,93,0.00,,,0.00,WUHU216DAVISVP2,2013-11-17 17:52:00,
2013-11-17 12:57:00,65.3,63.2,30.07,NE,41,5.0,9.0,93,0.00,,,0.00,WUHU216DAVISVP2,2013-11-17 17:57:00,
2013-11-17 13:00:00,65.3,63.2,30.06,NE,45,5.0,9.0,93,0.00,,,0.00,WUHU216DAVISVP2,2013-11-17 18:00:00,
2013-11-17 13:02:00,65.3,63.2,30.06,NE,41,4.0,9.0,93,0.00,,,0.00,WUHU216DAVISVP2,2013-11-17 18:02:00,
2013-11-17 13:07:00,65.3,62.9,30.06,East,88,5.0,8.0,92,0.00,,,0.00,WUHU216DAVISVP2,2013-11-17 18:07:00,
2013-11-17 13:12:00,65.1,62.7,30.06,ENE,69,3.0,7.0,92,0.00,,,0.00,WUHU216DAVISVP2,2013-11-17 18:12:00,
2013-11-17 13:17:00,64.9,62.8,30.06,NNE,31,4.0,6.0,93,0.00,,,0.00,WUHU216DAVISVP2,2013-11-17 18:17:00,
2013-11-17 13:22:00,65.0,62.9,30.06,ENE,62,2.0,6.0,93,0.00,,,0.00,WUHU216DAVISVP2,2013-11-17 18:22:00,
2013-11-17 13:27:00,65.2,63.1,30.06,NE,34,3.0,6.0,93,0.00,,,0.00,WUHU216DAVISVP2,2013-11-17 18:27:00,
2013-11-17 13:30:00,65.1,63.0,30.06,NE,45,4.0,6.0,93,0.00,,,0.00,WUHU216DAVISVP2,2013-11-17 18:30:00,
2013-11-17 13:32:00,65.2,63.1,30.05,East,84,2.0,6.0,93,0.00,,,0.00,WUHU216DAVISVP2,2013-11-17 18:32:00,
2013-11-17 13:37:00,65.3,63.2,30.05,ESE,105,2.0,5.0,93,0.00,,,0.00,WUHU216DAVISVP2,2013-11-17 18:37:00,
2013-11-17 13:42:00,65.2,63.1,30.05,ENE,67,3.0,5.0,93,0.00,,,0.00,WUHU216DAVISVP2,2013-11-17 18:42:00,
2013-11-17 13:47:00,65.1,63.0,30.04,ENE,60,3.0,5.0,93,0.00,,,0.00,WUHU216DAVISVP2,2013-11-17 18:47:00,
2013-11-17 13:52:00,65.0,62.9,30.04,NE,55,2.0,5.0,93,0.00,,,0.00,WUHU216DAVISVP2,2013-11-17 18:52:00,
2013-11-17 13:57:00,65.1,63.0,30.04,ENE,65,3.0,5.0,93,0.00,,,0.00,WUHU216DAVISVP2,2013-11-17 18:57:00,
2013-11-17 14:00:00,65.1,63.0,30.03,NE,45,3.0,5.0,93,0.00,,,0.00,WUHU216DAVISVP2,2013-11-17 19:00:00,
2013-11-17 14:02:00,65.1,63.0,30.03,ESE,103,3.0,5.0,93,0.00,,,0.00,WUHU216DAVISVP2,2013-11-17 19:02:00,
2013-11-17 14:07:00,65.4,63.3,30.03,NE,48,3.0,5.0,93,0.00,,,0.00,WUHU216DAVISVP2,2013-11-17 19:07:00,
2013-11-17 14:12:00,65.5,63.4,30.03,NE,53,2.0,5.0,93,0.00,,,0.00,WUHU216DAVISVP2,2013-11-17 19:12:00,
2013-11-17 14:17:00,65.4,63.0,30.02,NE,42,4.0,5.0,92,0.00,,,0.00,WUHU216DAVISVP2,2013-11-17 19:17:00,
2013-11-17 14:22:00,65.4,63.3,30.03,ENE,65,4.0,5.0,93,0.00,,,0.00,WUHU216DAVISVP2,2013-11-17 19:22:00,
2013-11-17 14:27:00,65.4,63.0,30.03,NE,49,3.0,5.0,92,0.00,,,0.00,WUHU216DAVISVP2,2013-11-17 19:27:00,
2013-11-17 14:30:00,65.4,63.3,30.03,NE,45,3.0,5.0,93,0.00,,,0.00,WUHU216DAVISVP2,2013-11-17 19:30:00,
2013-11-17 14:32:00,65.3,62.9,30.02,East,81,3.0,5.0,92,0.00,,,0.00,WUHU216DAVISVP2,2013-11-17 19:32:00,
2013-11-17 14:37:00,65.1,62.7,30.02,ENE,58,4.0,5.0,92,0.00,,,0.00,WUHU216DAVISVP2,2013-11-17 19:37:00,
2013-11-17 14:42:00,65.1,63.0,30.02,ENE,59,3.0,5.0,93,0.00,,,0.00,WUHU216DAVISVP2,2013-11-17 19:42:00,
2013-11-17 14:47:00,65.1,63.0,30.02,NE,51,3.0,5.0,93,0.00,,,0.00,WUHU216DAVISVP2,2013-11-17 19:47:00,
2013-11-17 14:52:00,65.3,63.2,30.02,NE,49,2.0,5.0,93,0.00,,,0.00,WUHU216DAVISVP2,2013-11-17 19:52:00,
2013-11-17 14:57:00,65.2,63.1,30.02,NE,49,2.0,5.0,93,0.00,,,0.00,WUHU216DAVISVP2,2013-11-17 19:57:00,
2013-11-17 15:00:00,65.2,63.1,30.02,NE,45,3.0,5.0,93,0.00,,,0.00,WUHU216DAVISVP2,2013-11-17 20:00:00,
2013-11-17 15:02:00,65.2,63.1,30.02,ENE,62,4.0,4.0,93,0.00,,,0.00,WUHU216DAVISVP2,2013-11-17 20:02:00,
2013-11-17 15:07:00,65.1,63.0,30.02,NE,56,2.0,4.0,93,0.00,,,0.00,WUHU216DAVISVP2,2013-11-17 20:07:00,
2013-11-17 15:12:00,65.1,63.0,30.02,ENE,63,4.0,4.0,93,0.00,,,0.00,WUHU216DAVISVP2,2013-11-17 20:12:00,
2013-11-17 15:17:00,65.1,63.0,30.02,ENE,68,3.0,4.0,93,0.00,,,0.00,WUHU216DAVISVP2,2013-11-17 20:17:00,
2013-11-17 15:22:00,65.0,62.9,30.02,East,98,2.0,4.0,93,0.00,,,0.00,WUHU216DAVISVP2,2013-11-17 20:22:00,
2013-11-17 15:27:00,65.0,63.2,30.02,East,96,2.0,4.0,94,0.00,,,0.00,WUHU216DAVISVP2,2013-11-17 20:27:00,
2013-11-17 15:30:00,65.0,62.9,30.02,ENE,68,3.0,4.0,93,0.00,,,0.00,WUHU216DAVISVP2,2013-11-17 20:30:00,
2013-11-17 15:32:00,65.1,63.3,30.02,East,101,1.0,4.0,94,0.00,,,0.00,WUHU216DAVISVP2,2013-11-17 20:32:00,
2013-11-17 15:37:00,65.2,63.4,30.02,East,79,1.0,4.0,94,0.00,,,0.00,WUHU216DAVISVP2,2013-11-17 20:37:00,
2013-11-17 15:42:00,65.3,63.5,30.02,ENE,77,1.0,3.0,94,0.00,,,0.00,WUHU216DAVISVP2,2013-11-17 20:42:00,
2013-11-17 15:47:00,65.2,63.1,30.02,ENE,77,1.0,3.0,93,0.00,,,0.00,WUHU216DAVISVP2,2013-11-17 20:47:00,
2013-11-17 15:52:00,65.2,63.4,30.02,NE,46,2.0,4.0,94,0.00,,,0.00,WUHU216DAVISVP2,2013-11-17 20:52:00,
2013-11-17 15:57:00,65.1,63.3,30.02,NE,53,2.0,4.0,94,0.00,,,0.00,WUHU216DAVISVP2,2013-11-17 20:57:00,
2013-11-17 16:00:00,65.2,63.4,30.02,ENE,68,2.0,4.0,94,0.00,,,0.00,WUHU216DAVISVP2,2013-11-17 21:00:00,
2013-11-17 16:02:00,65.2,63.4,30.02,ENE,65,2.0,4.0,94,0.00,,,0.00,WUHU216DAVISVP2,2013-11-17 21:02:00,
2013-11-17 16:07:00,65.1,63.3,30.01,East,79,3.0,4.0,94,0.00,,,0.00,WUHU216DAVISVP2,2013-11-17 21:07:00,
2013-11-17 16:12:00,65.0,63.2,30.01,ENE,70,3.0,4.0,94,0.00,,,0.00,WUHU216DAVISVP2,2013-11-17 21:12:00,
2013-11-17 16:17:00,65.0,63.5,30.01,ENE,78,2.0,3.0,95,0.00,,,0.00,WUHU216DAVISVP2,2013-11-17 21:17:00,
2013-11-17 16:22:00,65.0,63.5,30.01,ENE,72,1.0,3.0,95,0.00,,,0.00,WUHU216DAVISVP2,2013-11-17 21:22:00,
2013-11-17 16:27:00,65.1,63.6,30.01,East,93,2.0,3.0,95,0.00,,,0.00,WUHU216DAVISVP2,2013-11-17 21:27:00,
2013-11-17 16:30:00,65.1,63.6,30.01,East,90,2.0,3.0,95,0.00,,,0.00,WUHU216DAVISVP2,2013-11-17 21:30:00,
2013-11-17 16:32:00,65.1,63.6,30.01,East,94,0.0,3.0,95,0.00,,,0.00,WUHU216DAVISVP2,2013-11-17 21:32:00,
2013-11-17 16:37:00,65.2,63.7,30.02,East,94,0.0,2.0,95,0.00,,,0.00,WUHU216DAVISVP2,2013-11-17 21:37:00,
2013-11-17 16:42:00,65.6,64.4,30.02,ESE,110,0.0,2.0,96,0.00,,,0.00,WUHU216DAVISVP2,2013-11-17 21:42:00,
2013-11-17 16:47:00,65.7,64.2,30.03,ESE,110,0.0,2.0,95,0.00,,,0.00,WUHU216DAVISVP2,2013-11-17 21:47:00,
2013-11-17 16:52:00,66.0,64.8,30.03,SSE,162,0.0,1.0,96,0.00,,,0.00,WUHU216DAVISVP2,2013-11-17 21:52:00,
2013-11-17 16:57:00,66.3,65.1,30.02,WSW,255,0.0,1.0,96,0.00,,,0.00,WUHU216DAVISVP2,2013-11-17 21:57:00,
2013-11-17 17:00:00,66.5,65.3,30.03,East,90,0.0,1.0,96,0.00,,,0.00,WUHU216DAVISVP2,2013-11-17 22:00:00,
2013-11-17 17:02:00,66.6,65.4,30.03,WSW,250,0.0,1.0,96,0.00,,,0.00,WUHU216DAVISVP2,2013-11-17 22:02:00,
2013-11-17 17:07:00,66.8,65.6,30.03,SE,128,3.0,3.0,96,0.00,,,0.00,WUHU216DAVISVP2,2013-11-17 22:07:00,
2013-11-17 17:12:00,67.0,65.8,30.03,SSE,153,2.0,3.0,96,0.01,,,0.01,WUHU216DAVISVP2,2013-11-17 22:12:00,
2013-11-17 17:17:00,67.1,65.9,30.03,South,179,3.0,4.0,96,0.01,,,0.01,WUHU216DAVISVP2,2013-11-17 22:17:00,
2013-11-17 17:22:00,66.8,65.3,30.02,SE,140,5.0,5.0,95,0.01,,,0.01,WUHU216DAVISVP2,2013-11-17 22:22:00,
2013-11-17 17:27:00,66.8,65.6,30.02,SE,145,5.0,7.0,96,0.02,,,0.02,WUHU216DAVISVP2,2013-11-17 22:27:00,
2013-11-17 17:30:00,66.6,65.4,30.02,SSE,158,2.0,7.0,96,0.00,,,0.00,WUHU216DAVISVP2,2013-11-17 22:30:00,
2013-11-17 17:32:00,66.6,65.4,30.02,SE,139,5.0,7.0,96,0.02,,,0.02,WUHU216DAVISVP2,2013-11-17 22:32:00,
2013-11-17 17:37:00,66.6,65.4,30.03,SSE,157,4.0,7.0,96,0.03,,,0.03,WUHU216DAVISVP2,2013-11-17 22:37:00,
2013-11-17 17:42:00,66.6,65.7,30.03,SSE,155,6.0,8.0,97,0.03,,,0.03,WUHU216DAVISVP2,2013-11-17 22:42:00,
2013-11-17 17:47:00,66.6,65.7,30.03,SSE,151,8.0,10.0,97,0.03,,,0.03,WUHU216DAVISVP2,2013-11-17 22:47:00,
2013-11-17 17:52:00,66.5,65.6,30.03,SSE,153,8.0,12.0,97,0.03,,,0.03,WUHU216DAVISVP2,2013-11-17 22:52:00,
2013-11-17 17:57:00,66.3,65.4,30.03,SE,140,8.0,12.0,97,0.03,,,0.03,WUHU216DAVISVP2,2013-11-17 22:57:00,
2013-11-17 18:00:00,66.2,65.3,30.02,SSE,158,6.0,12.0,97,0.02,,,0.02,WUHU216DAVISVP2,2013-11-17 23:00:00,
2013-11-17 18:02:00,66.1,65.2,30.03,SSE,163,6.0,12.0,97,0.03,,,0.03,WUHU216DAVISVP2,2013-11-17 23:02:00,
2013-11-17 18:07:00,66.0,65.1,30.02,SSE,158,4.0,12.0,97,0.03,,,0.03,WUHU216DAVISVP2,2013-11-17 23:07:00,
2013-11-17 18:12:00,65.9,65.0,30.02,SSE,150,6.0,10.0,97,0.02,,,0.03,WUHU216DAVISVP2,2013-11-17 23:12:00,
2013-11-17 18:17:00,65.8,64.9,30.02,SE,146,8.0,10.0,97,0.02,,,0.03,WUHU216DAVISVP2,2013-11-17 23:17:00,
2013-11-17 18:22:00,65.8,64.9,30.02,SSE,155,6.0,10.0,97,0.03,,,0.04,WUHU216DAVISVP2,2013-11-17 23:22:00,
2013-11-17 18:27:00,65.8,64.9,30.02,SE,143,5.0,10.0,97,0.02,,,0.04,WUHU216DAVISVP2,2013-11-17 23:27:00,
2013-11-17 18:30:00,65.8,65.2,30.02,SSE,158,7.0,10.0,98,0.01,,,0.03,WUHU216DAVISVP2,2013-11-17 23:30:00,
2013-11-17 18:32:00,65.8,64.9,30.02,SSE,167,7.0,10.0,97,0.02,,,0.04,WUHU216DAVISVP2,2013-11-17 23:32:00,
2013-11-17 18:37:00,65.8,65.2,30.02,SSE,167,4.0,10.0,98,0.01,,,0.04,WUHU216DAVISVP2,2013-11-17 23:37:00,
2013-11-17 18:42:00,65.8,65.2,30.02,SE,138,8.0,10.0,98,0.01,,,0.04,WUHU216DAVISVP2,2013-11-17 23:42:00,
2013-11-17 18:47:00,65.8,65.2,30.02,SSE,154,12.0,13.0,98,0.01,,,0.04,WUHU216DAVISVP2,2013-11-17 23:47:00,
2013-11-17 18:52:00,65.7,65.1,30.02,SE,145,11.0,14.0,98,0.02,,,0.05,WUHU216DAVISVP2,2013-11-17 23:52:00,
2013-11-17 18:57:00,65.6,65.0,30.02,SE,141,11.0,14.0,98,0.02,,,0.05,WUHU216DAVISVP2,2013-11-17 23:57:00,
2013-11-17 19:00:00,65.6,65.0,30.02,SE,135,9.0,14.0,98,0.01,,,0.04,WUHU216DAVISVP2,2013-11-18 00:00:00,
2013-11-17 19:02:00,65.6,65.0,30.02,SE,137,12.0,14.0,98,0.02,,,0.05,WUHU216DAVISVP2,2013-11-18 00:02:00,
2013-11-17 19:07:00,65.6,65.0,30.02,SE,146,12.0,14.0,98,0.03,,,0.06,WUHU216DAVISVP2,2013-11-18 00:07:00,
2013-11-17 19:12:00,65.5,64.9,30.02,SSE,158,9.0,14.0,98,0.03,,,0.06,WUHU216DAVISVP2,2013-11-18 00:12:00,
2013-11-17 19:17:00,65.6,65.0,30.02,SSE,165,6.0,14.0,98,0.04,,,0.07,WUHU216DAVISVP2,2013-11-18 00:17:00,
2013-11-17 19:22:00,65.5,64.9,30.02,SSE,150,4.0,14.0,98,0.03,,,0.07,WUHU216DAVISVP2,2013-11-18 00:22:00,
2013-11-17 19:27:00,65.3,64.7,30.02,South,170,6.0,11.0,98,0.03,,,0.07,WUHU216DAVISVP2,2013-11-18 00:27:00,
2013-11-17 19:30:00,65.4,64.8,30.02,SE,135,8.0,14.0,98,0.01,,,0.05,WUHU216DAVISVP2,2013-11-18 00:30:00,
2013-11-17 19:32:00,65.5,64.9,30.02,SSE,147,7.0,10.0,98,0.03,,,0.07,WUHU216DAVISVP2,2013-11-18 00:32:00,
2013-11-17 19:37:00,65.6,65.0,30.02,South,176,9.0,9.0,98,0.03,,,0.07,WUHU216DAVISVP2,2013-11-18 00:37:00,
2013-11-17 19:42:00,65.6,65.0,30.01,South,186,5.0,9.0,98,0.03,,,0.07,WUHU216DAVISVP2,2013-11-18 00:42:00,
2013-11-17 19:47:00,65.5,64.9,30.01,South,186,3.0,11.0,98,0.03,,,0.07,WUHU216DAVISVP2,2013-11-18 00:47:00,
2013-11-17 19:52:00,65.5,64.9,30.01,SW,216,9.0,11.0,98,0.02,,,0.07,WUHU216DAVISVP2,2013-11-18 00:52:00,
2013-11-17 19:57:00,65.2,64.6,30.00,SSW,213,8.0,11.0,98,0.02,,,0.07,WUHU216DAVISVP2,2013-11-18 00:57:00,
2013-11-17 20:00:00,65.2,64.6,30.00,SSE,158,7.0,11.0,98,0.02,,,0.07,WUHU216DAVISVP2,2013-11-18 01:00:00,
2013-11-17 20:02:00,65.2,64.6,29.99,SE,134,10.0,11.0,98,0.02,,,0.07,WUHU216DAVISVP2,2013-11-18 01:02:00,
2013-11-17 20:07:00,65.5,65.2,29.98,SSE,163,12.0,17.0,99,0.01,,,0.07,WUHU216DAVISVP2,2013-11-18 01:07:00,
2013-11-17 20:12:00,65.6,65.3,29.97,SE,144,14.0,20.0,99,0.01,,,0.07,WUHU216DAVISVP2,2013-11-18 01:12:00,
2013-11-17 20:17:00,65.5,64.9,29.98,SE,137,12.0,20.0,98,0.00,,,0.07,WUHU216DAVISVP2,2013-11-18 01:17:00,
2013-11-17 20:22:00,65.4,64.8,29.97,SE,132,13.0,20.0,98,0.00,,,0.07,WUHU216DAVISVP2,2013-11-18 01:22:00,
2013-11-17 20:27:00,65.3,64.7,29.98,South,169,12.0,20.0,98,0.00,,,0.07,WUHU216DAVISVP2,2013-11-18 01:27:00,
2013-11-17 20:30:00,65.3,64.7,29.98,SE,135,13.0,20.0,98,0.00,,,0.07,WUHU216DAVISVP2,2013-11-18 01:30:00,
2013-11-17 20:32:00,65.3,64.7,29.98,SSW,196,8.0,18.0,98,0.00,,,0.07,WUHU216DAVISVP2,2013-11-18 01:32:00,
2013-11-17 20:37:00,65.4,64.8,29.99,South,191,6.0,18.0,98,0.00,,,0.07,WUHU216DAVISVP2,2013-11-18 01:37:00,
2013-11-17 20:42:00,65.4,65.1,29.98,SW,217,10.0,15.0,99,0.01,,,0.08,WUHU216DAVISVP2,2013-11-18 01:42:00,
2013-11-17 20:47:00,65.5,65.2,29.98,SSW,201,8.0,13.0,99,0.01,,,0.08,WUHU216DAVISVP2,2013-11-18 01:47:00,
2013-11-17 20:52:00,65.9,65.6,29.98,SSE,157,9.0,15.0,99,0.01,,,0.08,WUHU216DAVISVP2,2013-11-18 01:52:00,
2013-11-17 20:57:00,65.9,65.6,29.97,South,177,10.0,15.0,99,0.01,,,0.08,WUHU216DAVISVP2,2013-11-18 01:57:00,
2013-11-17 21:00:00,65.8,65.2,29.97,South,180,8.0,16.0,98,0.00,,,0.07,WUHU216DAVISVP2,2013-11-18 02:00:00,
2013-11-17 21:02:00,65.7,65.1,29.98,SSW,197,4.0,16.0,98,0.01,,,0.08,WUHU216DAVISVP2,2013-11-18 02:02:00,
2013-11-17 21:07:00,65.8,65.2,29.98,SSE,165,13.0,17.0,98,0.01,,,0.08,WUHU216DAVISVP2,2013-11-18 02:07:00,
2013-11-17 21:12:00,65.9,65.3,29.98,SSW,200,7.0,17.0,98,0.01,,,0.08,WUHU216DAVISVP2,2013-11-18 02:12:00,
2013-11-17 21:17:00,65.9,65.3,29.98,SW,231,9.0,17.0,98,0.01,,,0.08,WUHU216DAVISVP2,2013-11-18 02:17:00,
2013-11-17 21:22:00,65.8,65.2,29.98,SSW,193,6.0,17.0,98,0.01,,,0.08,WUHU216DAVISVP2,2013-11-18 02:22:00,
2013-11-17 21:27:00,65.9,65.3,29.98,SSE,155,10.0,15.0,98,0.01,,,0.08,WUHU216DAVISVP2,2013-11-18 02:27:00,
2013-11-17 21:30:00,65.8,65.2,29.98,SSW,203,9.0,17.0,98,0.01,,,0.08,WUHU216DAVISVP2,2013-11-18 02:30:00,
2013-11-17 21:32:00,65.7,65.1,29.98,SW,221,6.0,15.0,98,0.01,,,0.08,WUHU216DAVISVP2,2013-11-18 02:32:00,
2013-11-17 21:37:00,65.4,64.8,29.98,SSW,212,6.0,14.0,98,0.01,,,0.08,WUHU216DAVISVP2,2013-11-18 02:37:00,
2013-11-17 21:42:00,65.1,64.2,29.97,SSW,199,8.0,14.0,97,0.00,,,0.08,WUHU216DAVISVP2,2013-11-18 02:42:00,
2013-11-17 21:47:00,64.9,64.3,29.97,South,190,5.0,14.0,98,0.00,,,0.08,WUHU216DAVISVP2,2013-11-18 02:47:00,
2013-11-17 21:52:00,65.0,64.4,29.97,South,181,5.0,10.0,98,0.00,,,0.08,WUHU216DAVISVP2,2013-11-18 02:52:00,
2013-11-17 21:57:00,65.3,65.0,29.98,SE,143,6.0,11.0,99,0.00,,,0.08,WUHU216DAVISVP2,2013-11-18 02:57:00,
2013-11-17 22:00:00,65.4,64.8,29.97,South,180,6.0,14.0,98,0.00,,,0.08,WUHU216DAVISVP2,2013-11-18 03:00:00,
2013-11-17 22:02:00,65.4,64.8,29.97,SSW,195,7.0,11.0,98,0.00,,,0.08,WUHU216DAVISVP2,2013-11-18 03:02:00,
2013-11-17 22:07:00,65.4,64.8,29.97,SSW,203,5.0,11.0,98,0.00,,,0.08,WUHU216DAVISVP2,2013-11-18 03:07:00,
2013-11-17 22:12:00,65.5,64.9,29.97,SW,214,9.0,12.0,98,0.00,,,0.08,WUHU216DAVISVP2,2013-11-18 03:12:00,
2013-11-17 22:17:00,65.8,65.5,29.97,South,188,6.0,14.0,99,0.00,,,0.08,WUHU216DAVISVP2,2013-11-18 03:17:00,
2013-11-17 22:22:00,66.1,65.8,29.97,SSW,195,5.0,14.0,99,0.00,,,0.08,WUHU216DAVISVP2,2013-11-18 03:22:00,
2013-11-17 22:27:00,66.9,66.6,29.97,SSW,203,6.0,14.0,99,0.00,,,0.08,WUHU216DAVISVP2,2013-11-18 03:27:00,
2013-11-17 22:30:00,67.3,67.0,29.97,SSW,203,7.0,14.0,99,0.00,,,0.08,WUHU216DAVISVP2,2013-11-18 03:30:00,
2013-11-17 22:32:00,67.5,67.2,29.97,WSW,252,5.0,15.0,99,0.00,,,0.08,WUHU216DAVISVP2,2013-11-18 03:32:00,
2013-11-17 22:37:00,68.0,67.7,29.97,SW,224,7.0,15.0,99,0.00,,,0.08,WUHU216DAVISVP2,2013-11-18 03:37:00,
2013-11-17 22:42:00,68.1,67.8,29.98,SW,236,7.0,15.0,99,0.00,,,0.08,WUHU216DAVISVP2,2013-11-18 03:42:00,
2013-11-17 22:47:00,67.8,67.2,29.98,SW,236,12.0,15.0,98,0.00,,,0.08,WUHU216DAVISVP2,2013-11-18 03:47:00,
2013-11-17 22:52:00,67.5,66.9,29.98,WSW,254,11.0,15.0,98,0.00,,,0.08,WUHU216DAVISVP2,2013-11-18 03:52:00,
2013-11-17 22:57:00,67.5,66.9,29.98,WSW,244,7.0,17.0,98,0.00,,,0.08,WUHU216DAVISVP2,2013-11-18 03:57:00,
2013-11-17 23:00:00,67.6,67.0,29.98,WSW,248,10.0,17.0,98,0.00,,,0.08,WUHU216DAVISVP2,2013-11-18 04:00:00,
2013-11-17 23:02:00,67.7,67.1,29.98,WSW,252,12.0,17.0,98,0.00,,,0.08,WUHU216DAVISVP2,2013-11-18 04:02:00,
2013-11-17 23:07:00,67.9,67.6,29.98,WSW,239,14.0,17.0,99,0.00,,,0.08,WUHU216DAVISVP2,2013-11-18 04:07:00,
2013-11-17 23:12:00,68.0,67.4,29.98,SW,231,12.0,17.0,98,0.00,,,0.08,WUHU216DAVISVP2,2013-11-18 04:12:00,
2013-11-17 23:17:00,68.0,67.4,29.98,WSW,255,8.0,17.0,98,0.00,,,0.08,WUHU216DAVISVP2,2013-11-18 04:17:00,
2013-11-17 23:22:00,68.1,67.5,29.98,SW,227,6.0,17.0,98,0.00,,,0.08,WUHU216DAVISVP2,2013-11-18 04:22:00,
2013-11-17 23:27:00,68.3,67.7,29.98,SW,223,8.0,16.0,98,0.00,,,0.08,WUHU216DAVISVP2,2013-11-18 04:27:00,
2013-11-17 23:30:00,68.4,67.8,29.98,WSW,248,10.0,17.0,98,0.00,,,0.08,WUHU216DAVISVP2,2013-11-18 04:30:00,
2013-11-17 23:32:00,68.5,67.9,29.98,West,277,7.0,15.0,98,0.00,,,0.08,WUHU216DAVISVP2,2013-11-18 04:32:00,
2013-11-17 23:37:00,68.7,68.1,29.98,WSW,258,6.0,15.0,98,0.00,,,0.08,WUHU216DAVISVP2,2013-11-18 04:37:00,
2013-11-17 23:42:00,68.8,68.2,29.97,WSW,250,11.0,15.0,98,0.00,,,0.08,WUHU216DAVISVP2,2013-11-18 04:42:00,
2013-11-17 23:47:00,68.8,68.2,29.97,SSW,207,6.0,15.0,98,0.00,,,0.08,WUHU216DAVISVP2,2013-11-18 04:47:00,
2013-11-17 23:52:00,68.8,68.2,29.98,WSW,247,8.0,15.0,98,0.00,,,0.08,WUHU216DAVISVP2,2013-11-18 04:52:00,
2013-11-17 23:57:00,68.7,68.1,29.97,SW,234,9.0,15.0,98,0.00,,,0.08,WUHU216DAVISVP2,2013-11-18 04:57:00,